Location: Dürabuch
(48.2640°N, 11.2185°E)
Time: 20:23:38
(UTC+00:00)

Cosmos 1703 Rocket - Pass Details

Date: 23 May 2024
Orbit: 602 x 629 km, 82.5° (Epoch: 24 June)

Event Time Altitude Azimuth Distance (km) Brightness Sun altitude
Exits shadow 00:59:04 33° 194° (SSW) 1,053 4.2 -17.0°
Maximum altitude 01:01:02 83° 280° (W) 637 3.5 -16.9°
Drops below altitude 10° 01:05:31 10° 8° (N) 2,015 7.3 -16.6°
Sets 01:07:46 0° 9° (N) 2,930 8.4 -16.4°
